Regional Weather Roundup
Issued by NWS

Home | Current Version | Previous Version | Text Only | Print | Product List | Glossary Off
Versions: 1 2 3 4 5 6 7 8 9 10 11 12 13 14 15 16 17 18 19 20 21 22 23 24 25 26 27 28 29 30 31 32 33 34 35 36 37 38 39 40 41 42 43 44 45 46 47 48 49 50

000
ASUS43 KDMX 292208
RWRIA

WEATHER ROUNDUP FOR IOWA
NATIONAL WEATHER SERVICE DES MOINES IA
500 PM CDT SUN MAY 29 2016

NOTE: "FAIR" INDICATES FEW OR NO CLOUDS BELOW 12,000 FEET WITH NO
SIGNIFICANT WEATHER AND/OR OBSTRUCTIONS TO VISIBILITY.

* - THESE STATIONS ARE NOT NWS STATIONS...THUS NOT UNDER NWS
QUALITY CONTROL.  THEY ALSO DO NOT REPORT WEATHER SUCH
AS PRECIPITATION OR FOG.

IAZ001>003-012>014-020>022-031>034-043>046-292300-
   NORTHWEST IOWA

CITY           SKY/WX    TMP DP  RH WIND       PRES   REMARKS
CARROLL *      MOSUNNY   82  54  36 W12       30.02F HX  81
CHEROKEE *     MOSUNNY   79  57  47 NW8       30.02F HX  80
DENISON *      MOSUNNY   81  54  39 NW9       30.00F HX  80
LE MARS *      MOSUNNY   79  57  47 NW9G18    30.03S HX  80
ORANGE CITY *  SUNNY     77  57  50 NW10G16   30.04S
SHELDON *      SUNNY     77  48  36 NW13      30.02S
SIOUX CITY     SUNNY     82  59  45 NW7       30.01F HX  82
SPENCER        MOSUNNY   78  55  44 NW13G22   30.02F
STORM LAKE *     N/A     81  55  41 W14G21    30.03F HX  80
$$

IAZ055>058-069>071-079>083-090>094-292300-
   SOUTHWEST IOWA

CITY           SKY/WX    TMP DP  RH WIND       PRES   REMARKS
ATLANTIC *     SUNNY     82  54  36 W8G16     30.02F HX  81
AUDUBON *        N/A     82  54  36 SW6       30.04F HX  81
CLARINDA *       N/A     84  61  45 MISG      30.03F HX  84
COUNCIL BLFS * SUNNY     82  57  42 CALM      30.01F HX  82
CRESTON *      SUNNY     81  59  47 W10       30.05F HX  81
HARLAN  *      SUNNY     82  52  34 W6G14     30.05F HX  81
LAMONI           N/A     81  62  52 W10       30.04F HX  82
RED OAK *      SUNNY     84  59  42 CALM      30.02F HX  84
SHENANDOAH *   MOSUNNY   86  61  42 SW8       30.01F HX  86
$$

IAZ047>049-059>061-072>074-084-292300-
   CENTRAL IOWA

CITY           SKY/WX    TMP DP  RH WIND       PRES   REMARKS
AMES           MOSUNNY   82  57  42 W9        30.01F HX  82
ANKENY *       PTSUNNY   82  57  42 VRB7      30.02F HX  82
BOONE *        MOSUNNY   81  55  41 W10       30.01F HX  80
CHARITON *     MOSUNNY   81  59  47 SW8       30.04F HX  81
DES MOINES     MOSUNNY   83  52  34 W7        30.02F HX  82
GRINNELL*      MOSUNNY   79  57  47 W3        30.04F HX  80
KNOXVILLE *    SUNNY     81  55  41 W8        30.03S HX  80
MARSHALLTOWN   MOSUNNY   79  58  48 W13       30.00F HX  80
NEWTON *       SUNNY     81  57  44 W9        30.02F HX  81
PELLA *        SUNNY     82  57  42 W3        30.04F HX  82
PERRY *          N/A     82  52  34 W9G16     30.02F HX  81
$$

IAZ004>006-015-016-023>025-035-036-292300-
   NORTH CENTRAL IOWA

CITY           SKY/WX    TMP DP  RH WIND       PRES   REMARKS
ALGONA *       MOSUNNY   79  59  50 NW13G20   30.01F HX  80
CLARION *      SUNNY     81  55  41 W20       30.00F HX  80
ESTHERVILLE    SUNNY     76  57  51 W17       30.01F
FORT DODGE *   MOSUNNY   81  55  41 W10       30.01F HX  80
MASON CITY     PTSUNNY   75  61  61 W9        30.02F
FOREST CITY *  SUNNY     75  59  57 W14       30.00F
WEBSTER CITY * MOSUNNY   82  54  36 W14       29.99F HX  81
IOWA FALLS *     N/A     81  57  44 W10       30.02F HX  81
$$

IAZ007>011-017>019-026>030-037>042-050>054-066-292300-
   NORTHEAST IOWA

CITY           SKY/WX    TMP DP  RH WIND       PRES   REMARKS
CEDAR RAPIDS   MOSUNNY   81  61  50 W12       30.01F HX  82
CHARLES CITY * MOSUNNY   73  57  56 W13       30.01S
CLINTON *      MOSUNNY   81  59  47 W21       30.01F HX  81
DECORAH *      MOSUNNY   77  55  47 W9G20     29.97S
DUBUQUE        MOSUNNY   77  58  51 W10       30.00F
MONTICELLO *   MOSUNNY   79  57  47 W15G23    30.00F HX  80
OELWEIN *      MOSUNNY   77  59  53 NW13G21   30.00S
WATERLOO       PTSUNNY   78  56  46 W12       29.99F
$$

IAZ064-065-067-068-078-292300-
   EAST CENTRAL IOWA

CITY           SKY/WX    TMP DP  RH WIND       PRES   REMARKS
DAVENPORT      MOSUNNY   81  56  42 W15G24    30.02F HX  81
IOWA CITY      MOSUNNY   81  58  45 W14G24    30.02F HX  81
MT. PLEASANT * SUNNY     84  57  39 W6        30.03F HX  83
MUSCATINE *    SUNNY     82  55  39 W12G17    30.03S HX  82
QUAD CITIES    SUNNY     82  56  40 W10       30.01F HX  82
$$

IAZ062-063-075>077-085>089-095>099-292300-
   SOUTHEAST IOWA

CITY           SKY/WX    TMP DP  RH WIND       PRES   REMARKS
BURLINGTON     SUNNY     81  56  42 W6        30.04F HX  81
FAIRFIELD *      N/A    N/A N/A N/A MISG        N/A
FORT MADISON * SUNNY     82  57  42 NW7       30.05F HX  82
KEOKUK *       SUNNY     82  57  42 VRB6      30.04S HX  82
OSKALOOSA *      N/A     82  52  34 W3G9      30.03F HX  81
OTTUMWA        SUNNY     81  56  42 SW6       30.03F HX  81
WASHINGTON *   SUNNY     82 -31   1 NW7G14    30.04F
$$

ABBREVIATIONS USED IN REMARKS
   TC - TEMPERATURES IN CELSIUS
  WCI - WIND CHILL INDEX
   HX - HEAT INDEX
  VSB - VISIBILITY
$$




USA.gov is the U.S. government's official web portal to all federal, state and local government web resources and services.